Location: ???????
(55.3754°N, 39.3545°E)
Time: 10:35:57
(UTC+00:00)

Cosmos 2233 Rocket - Pass Details

Date: 14 April 2026
Orbit: 951 x 991 km, 82.9° (Epoch: 19 May)

Event Time Altitude Azimuth Distance (km) Brightness Sun altitude
Exits shadow 21:53:27 55° 203° (SSW) 1,178 4.0 -24.6°
Maximum altitude 21:54:59 82° 281° (W) 1,001 3.9 -24.6°
Drops below altitude 10° 22:01:18 10° 10° (N) 2,744 7.4 -24.5°
Sets 22:03:50 0° 12° (NNE) 3,690 8.5 -24.4°
